GW1603 Weather Reports


time (UTC)temp
C
wind
direction
speed
KPH
gust
KPH
rain 1hr
cm
rain 24hr
cm
rain mn
cm
humidity
%
barometer
mb
20260510203252 21 27 6.4 9.7 0.00 0.00 0.00 49 1018.4
20260510202747 21 51 3.2 8.0 0.00 0.00 0.00 50 1018.6
20260510202243 21 33 1.6 4.8 0.00 0.00 0.00 51 1018.5
20260510201740 21 328 3.2 8.0 0.00 0.00 0.00 52 1018.5
20260510201236 21 12 6.4 8.0 0.00 0.00 0.00 54 1018.4
20260510200733 21 60 4.8 11.3 0.00 0.00 0.00 52 1018.3
20260510200231 21 56 3.2 9.7 0.00 0.00 0.00 55 1018.3
20260510195727 21 38 3.2 4.8 0.00 0.00 0.00 59 1018.4
20260510195225 21 19 4.8 8.0 0.00 0.00 0.00 53 1018.7
20260510194723 21 14 3.2 8.0 0.00 0.00 0.00 54 1018.6
20260510194220 21 355 3.2 9.7 0.00 0.00 0.00 52 1018.6
20260510193716 21 3 0.0 9.7 0.00 0.00 0.00 56 1018.3
20260510193210 21 322 3.2 9.7 0.00 0.00 0.00 52 1018.6
20260510192707 21 46 1.6 8.0 0.00 0.00 0.00 56 1018.1
20260510192202 21 26 1.6 3.2 0.00 0.00 0.00 52 1018.2
20260510191658 21 69 4.8 4.8 0.00 0.00 0.00 51 1018.4
20260510191155 21 15 6.4 9.7 0.00 0.00 0.00 54 1018.4
20260510190652 21 68 6.4 8.0 0.00 0.00 0.00 49 1018.4
20260510190150 21 0 3.2 3.2 0.00 0.00 0.00 54 1018.4
20260510185646 21 20 3.2 4.8 0.00 0.00 0.00 50 1018.3
20260510185144 21 73 8.0 12.9 0.00 0.00 0.00 55 1018.3
20260510184641 21 327 3.2 11.3 0.00 0.00 0.00 54 1018.5
20260510184137 21 69 3.2 8.0 0.00 0.00 0.00 57 1018.5
20260510183632 21 347 4.8 11.3 0.00 0.00 0.00 53 1018.5
20260510183127 21 61 1.6 4.8 0.00 0.00 0.00 59 1018.6
20260510182625 21 56 3.2 4.8 0.00 0.00 0.00 56 1018.5
20260510182120 21 43 1.6 8.0 0.00 0.00 0.00 57 1018.7
20260510181617 21 84 6.4 9.7 0.00 0.00 0.00 54 1018.4
20260510181114 21 35 4.8 9.7 0.00 0.00 0.00 56 1018.4
20260510180610 21 41 4.8 8.0 0.00 0.00 0.00 58 1018.6
20260510180108 20 78 1.6 4.8 0.00 0.00 0.00 57 1018.4
20260510175603 20 65 3.2 11.3 0.00 0.00 0.00 57 1018.4
20260510175059 20 1 3.2 8.0 0.00 0.00 0.00 57 1018.3
20260510174557 20 349 4.8 4.8 0.00 0.00 0.00 61 1018.4
20260510174054 20 353 6.4 8.0 0.00 0.00 0.00 56 1018.2
20260510173549 20 68 4.8 11.3 0.00 0.00 0.00 57 1018.5
20260510173047 20 81 8.0 9.7 0.00 0.00 0.00 55 1018.2
20260510172542 20 44 4.8 8.0 0.00 0.00 0.00 57 1018.1
20260510172039 20 85 4.8 9.7 0.00 0.00 0.00 58 1018.2
20260510171535 20 54 6.4 8.0 0.00 0.00 0.00 58 1018.3
20260510171032 20 355 3.2 12.9 0.00 0.00 0.00 58 1018.3
20260510170523 20 351 4.8 12.9 0.00 0.00 0.00 59 1018.3
20260510170020 20 54 3.2 16.1 0.00 0.00 0.00 64 1018.3
20260510165515 20 2 11.3 14.5 0.00 0.00 0.00 59 1018.1
20260510165012 20 70 8.0 11.3 0.00 0.00 0.00 61 1018.3
20260510164509 20 92 4.8 12.9 0.00 0.00 0.00 64 1018.2
20260510164005 20 68 4.8 9.7 0.00 0.00 0.00 63 1018.3
20260510163501 20 12 1.6 4.8 0.00 0.00 0.00 67 1018.3
20260510162955 20 66 3.2 12.9 0.00 0.00 0.00 65 1018.4
20260510162447 19 74 3.2 11.3 0.00 0.00 0.00 70 1018.6
20260510161943 19 76 6.4 11.3 0.00 0.00 0.00 66 1018.6
20260510161438 19 41 6.4 8.0 0.00 0.00 0.00 72 1018.5
20260510160936 19 38 4.8 8.0 0.00 0.00 0.00 67 1018.6
20260510160432 19 81 3.2 8.0 0.00 0.00 0.00 69 1018.6
20260510155925 19 79 1.6 8.0 0.00 0.00 0.00 69 1018.6
20260510155423 19 71 3.2 4.8 0.00 0.00 0.00 69 1018.4
20260510154919 19 71 1.6 4.8 0.00 0.00 0.00 71 1018.5
20260510154415 19 69 4.8 9.7 0.00 0.00 0.00 67 1018.2
20260510153909 18 48 1.6 8.0 0.00 0.00 0.00 69 1018.3
20260510153406 18 39 3.2 11.3 0.00 0.00 0.00 70 1018.3
20260510152902 18 63 4.8 9.7 0.00 0.00 0.00 66 1018.2
20260510152359 18 40 9.7 14.5 0.00 0.00 0.00 67 1018.3
20260510151855 18 26 4.8 8.0 0.00 0.00 0.00 70 1018.2
20260510151354 18 30 8.0 12.9 0.00 0.00 0.00 69 1018.2
20260510150849 18 63 4.8 8.0 0.00 0.00 0.00 71 1018.1
20260510150345 18 338 1.6 4.8 0.00 0.00 0.00 72 1017.9
20260510145841 18 67 6.4 9.7 0.00 0.00 0.00 72 1017.7
20260510145338 18 81 4.8 4.8 0.00 0.00 0.00 73 1017.7
20260510144835 18 58 3.2 12.9 0.00 0.00 0.00 72 1017.7
20260510144331 17 24 6.4 9.7 0.00 0.00 0.00 75 1017.7
20260510143831 17 68 4.8 4.8 0.00 0.00 0.00 76 1017.5
20260510143327 17 2 4.8 9.7 0.00 0.00 0.00 75 1017.5
20260510142825 17 62 6.4 9.7 0.00 0.00 0.00 75 1017.5
20260510142321 17 30 1.6 8.0 0.00 0.00 0.00 77 1017.3
20260510141818 17 61 4.8 8.0 0.00 0.00 0.00 77 1017.3
20260510141316 17 75 4.8 8.0 0.00 0.00 0.00 76 1017.2
20260510140813 17 72 4.8 9.7 0.00 0.00 0.00 77 1017.0
20260510140308 17 56 3.2 4.8 0.00 0.00 0.00 78 1016.8
20260510135802 17 33 3.2 4.8 0.00 0.00 0.00 77 1016.8
20260510135258 17 31 1.6 4.8 0.00 0.00 0.00 78 1016.8
20260510134756 17 0 0.0 3.2 0.00 0.00 0.00 79 1016.9
20260510134253 17 335 0.0 4.8 0.00 0.00 0.00 79 1016.9
20260510133748 17 37 1.6 4.8 0.00 0.00 0.00 80 1016.8
20260510133244 17 36 1.6 3.2 0.00 0.00 0.00 80 1016.7
20260510132740 16 334 1.6 3.2 0.00 0.00 0.00 80 1016.6
20260510132239 16 30 0.0 4.8 0.00 0.00 0.00 79 1016.5
20260510131734 16 341 1.6 3.2 0.00 0.00 0.00 78 1016.6
20260510131233 16 4 1.6 3.2 0.00 0.00 0.00 78 1016.4
20260510130729 16 344 1.6 3.2 0.00 0.00 0.00 77 1016.2
20260510130226 16 20 3.2 8.0 0.00 0.00 0.00 76 1016.4
20260510125722 16 351 1.6 3.2 0.00 0.00 0.00 78 1016.5
20260510125218 17 13 3.2 3.2 0.00 0.00 0.00 77 1016.3
20260510124715 17 315 1.6 3.2 0.00 0.00 0.00 78 1016.2
20260510124213 16 320 1.6 3.2 0.00 0.00 0.00 76 1016.2
20260510123708 16 319 1.6 1.6 0.00 0.00 0.00 79 1015.9
20260510123204 16 315 0.0 1.6 0.00 0.00 0.00 77 1016.2
20260510122700 16 323 0.0 3.2 0.00 0.00 0.00 76 1016.1
20260510122156 16 341 3.2 3.2 0.00 0.00 0.00 76 1015.9
20260510121647 16 319 0.0 1.6 0.00 0.00 0.00 76 1015.7
20260510121145 16 314 0.0 1.6 0.00 0.00 0.00 74 1015.8
20260510120642 16 316 0.0 1.6 0.00 0.00 0.00 74 1015.6
20260510120138 16 346 3.2 3.2 0.00 0.00 0.00 74 1015.5
20260510115634 17 341 3.2 4.8 0.00 0.00 0.00 74 1015.4
20260510115133 17 343 1.6 3.2 0.00 0.00 0.00 73 1015.2
20260510114628 17 304 0.0 0.0 0.00 0.00 0.00 70 1014.9
20260510114124 17 298 0.0 1.6 0.00 0.00 0.00 69 1015.0
20260510113620 17 300 0.0 1.6 0.00 0.00 0.00 71 1015.1
20260510113117 17 271 0.0 1.6 0.00 0.00 0.00 71 1014.7
20260510112614 17 282 0.0 1.6 0.00 0.00 0.00 71 1014.8
20260510112110 17 277 0.0 1.6 0.00 0.00 0.00 71 1014.8
20260510111607 17 282 0.0 1.6 0.00 0.00 0.00 70 1014.7
20260510111102 17 278 0.0 1.6 0.00 0.00 0.00 69 1014.8
20260510110558 17 277 0.0 0.0 0.00 0.00 0.00 68 1015.0
20260510110055 17 311 0.0 1.6 0.00 0.00 0.00 68 1014.7
20260510105551 17 311 1.6 1.6 0.00 0.00 0.00 68 1014.5
20260510105045 17 294 0.0 0.0 0.00 0.00 0.00 68 1014.5
20260510104542 17 299 0.0 0.0 0.00 0.00 0.00 68 1014.4
20260510104039 17 292 0.0 1.6 0.00 0.00 0.00 68 1014.3
20260510103536 17 286 0.0 0.0 0.00 0.00 0.00 68 1014.3
20260510103032 17 311 1.6 1.6 0.00 0.00 0.00 67 1014.1
20260510102528 17 312 0.0 4.8 0.00 0.00 0.00 67 1014.0
20260510102024 17 307 0.0 1.6 0.00 0.00 0.00 67 1014.0
20260510101522 17 308 0.0 3.2 0.00 0.00 0.00 67 1013.9
20260510101021 17 303 0.0 3.2 0.00 0.00 0.00 68 1014.0
20260510100516 17 299 0.0 3.2 0.00 0.00 0.00 68 1013.8
20260510100014 16 318 0.0 1.6 0.00 0.00 0.00 70 1013.9
20260510095509 16 293 0.0 0.0 0.00 0.00 0.00 69 1013.7
20260510095008 16 312 0.0 0.0 0.00 0.00 0.00 70 1013.9
20260510094503 16 307 0.0 1.6 0.00 0.00 0.00 71 1013.8
20260510093959 15 300 0.0 0.0 0.00 0.00 0.00 73 1013.9
20260510093455 15 276 0.0 1.6 0.00 0.00 0.00 75 1014.1
20260510092951 16 283 0.0 0.0 0.00 0.00 0.00 73 1013.9
20260510092448 15 319 0.0 0.0 0.00 0.00 0.00 71 1014.1
20260510091942 15 317 0.0 0.0 0.00 0.00 0.00 72 1014.0
20260510091440 15 318 0.0 0.0 0.00 0.00 0.00 72 1014.0
20260510090936 15 322 0.0 0.0 0.00 0.00 0.00 72 1014.2
20260510090433 16 323 0.0 1.6 0.00 0.00 0.00 72 1014.4
20260510085928 15 313 1.6 3.2 0.00 0.00 0.00 71 1014.3
20260510085424 15 329 3.2 3.2 0.00 0.00 0.00 72 1014.5
20260510084919 16 332 3.2 3.2 0.00 0.00 0.00 71 1014.2
20260510084417 16 317 1.6 3.2 0.00 0.00 0.00 71 1014.2
20260510083913 16 324 1.6 3.2 0.00 0.00 0.00 70 1013.8
20260510083410 16 322 4.8 8.0 0.00 0.00 0.00 68 1013.9
20260510082905 16 315 3.2 3.2 0.00 0.00 0.00 68 1013.8
20260510082403 16 319 3.2 4.8 0.00 0.00 0.00 69 1013.6
20260510081902 16 326 1.6 3.2 0.00 0.00 0.00 71 1013.5
20260510081358 16 336 3.2 4.8 0.00 0.00 0.00 71 1013.6
20260510080855 17 345 1.6 3.2 0.00 0.00 0.00 69 1013.4
20260510080348 17 307 1.6 4.8 0.00 0.00 0.00 68 1013.3
20260510075846 16 313 0.0 1.6 0.00 0.00 0.00 70 1013.4
20260510075344 16 298 0.0 3.2 0.00 0.00 0.00 71 1013.4
20260510074840 16 356 3.2 4.8 0.00 0.00 0.00 71 1013.6
20260510074337 16 347 3.2 4.8 0.00 0.00 0.00 68 1013.4
20260510073833 15 338 1.6 1.6 0.00 0.00 0.00 73 1013.1
20260510073323 15 294 0.0 0.0 0.00 0.00 0.00 71 1013.1
20260510072820 16 292 0.0 0.0 0.00 0.00 0.00 71 1012.9
20260510072317 16 281 0.0 1.6 0.00 0.00 0.00 69 1013.0
20260510071813 16 264 0.0 1.6 0.00 0.00 0.00 68 1013.1
20260510071309 16 292 0.0 1.6 0.00 0.00 0.00 68 1013.2
20260510070808 16 287 1.6 1.6 0.00 0.00 0.00 66 1012.9
20260510070259 16 268 0.0 1.6 0.00 0.00 0.00 67 1013.2
20260510065758 17 255 1.6 3.2 0.00 0.00 0.00 65 1013.2
20260510065250 17 278 0.0 3.2 0.00 0.00 0.00 65 1013.2
20260510064747 17 275 0.0 1.6 0.00 0.00 0.00 64 1013.1
20260510064244 17 225 3.2 3.2 0.00 0.00 0.00 64 1013.2
20260510063740 17 217 1.6 1.6 0.00 0.00 0.00 65 1013.1
20260510063237 17 235 1.6 3.2 0.00 0.00 0.00 66 1013.1
20260510062733 17 226 1.6 3.2 0.00 0.00 0.00 63 1013.0
20260510062229 17 252 1.6 9.7 0.00 0.00 0.00 61 1013.1
20260510061725 17 268 1.6 3.2 0.00 0.00 0.00 63 1013.1
20260510061222 18 258 1.6 4.8 0.00 0.00 0.00 61 1013.1
20260510060718 18 256 0.0 3.2 0.00 0.00 0.00 60 1013.1
20260510060215 18 274 0.0 4.8 0.00 0.00 0.00 59 1013.1
20260510055712 17 269 3.2 8.0 0.00 0.00 0.00 61 1013.4
20260510055210 18 273 1.6 4.8 0.00 0.00 0.00 60 1013.3
20260510054705 17 281 1.6 4.8 0.00 0.00 0.00 62 1013.2
20260510054201 17 276 1.6 4.8 0.00 0.00 0.00 63 1013.0
20260510053700 17 223 1.6 3.2 0.00 0.00 0.00 63 1013.1
20260510053157 17 262 1.6 3.2 0.00 0.00 0.00 62 1013.1
20260510052653 17 238 1.6 3.2 0.00 0.00 0.00 63 1012.8
20260510052149 17 215 0.0 3.2 0.00 0.00 0.00 62 1012.9
20260510051645 17 227 1.6 3.2 0.00 0.00 0.00 63 1012.7
20260510051142 17 243 1.6 3.2 0.00 0.00 0.00 64 1012.5
20260510050639 17 223 1.6 4.8 0.00 0.00 0.00 65 1012.6
20260510050136 17 217 1.6 3.2 0.00 0.00 0.00 65 1012.6
20260510045633 17 241 1.6 3.2 0.00 0.20 0.20 68 1012.6
20260510045129 16 228 1.6 3.2 0.00 0.20 0.20 68 1012.7
20260510044625 16 234 1.6 3.2 0.00 0.20 0.20 69 1012.7
20260510044123 16 229 1.6 1.6 0.00 0.20 0.20 68 1012.7
20260510043619 17 240 1.6 1.6 0.00 0.20 0.20 68 1012.8
20260510043115 17 243 0.0 3.2 0.00 0.20 0.20 68 1012.7
20260510042613 17 221 1.6 1.6 0.00 0.20 0.20 66 1012.6
20260510042109 17 243 1.6 3.2 0.00 0.20 0.20 66 1012.6
20260510041606 17 255 0.0 3.2 0.00 0.20 0.20 70 1012.7
20260510041103 17 249 0.0 1.6 0.00 0.20 0.20 67 1012.7
20260510040600 17 238 1.6 1.6 0.00 0.20 0.20 69 1012.7
20260510040056 17 246 1.6 1.6 0.00 0.20 0.20 70 1012.6
20260510035552 17 249 1.6 1.6 0.00 0.20 0.20 68 1012.5
20260510035052 17 249 1.6 3.2 0.00 0.20 0.20 69 1012.4
20260510034550 17 245 1.6 1.6 0.00 0.20 0.20 70 1012.6
20260510034047 17 239 1.6 1.6 0.00 0.20 0.20 69 1012.5
20260510033543 17 245 0.0 1.6 0.00 0.20 0.20 73 1012.4
20260510033041 17 241 0.0 1.6 0.00 0.20 0.20 69 1012.4
20260510032538 17 245 1.6 1.6 0.00 0.20 0.20 73 1012.5
20260510032033 17 247 0.0 1.6 0.00 0.20 0.20 73 1012.4
20260510031528 17 250 1.6 1.6 0.00 0.20 0.20 73 1012.3
20260510031024 17 253 0.0 0.0 0.00 0.20 0.20 72 1012.3
20260510030520 17 253 0.0 1.6 0.00 0.20 0.20 74 1012.3
20260510030017 17 255 0.0 1.6 0.00 0.20 0.20 75 1012.3
20260510025514 17 254 0.0 1.6 0.00 0.20 0.20 74 1012.3
20260510025011 17 252 1.6 1.6 0.00 0.20 0.20 72 1012.0
20260510024502 17 259 1.6 1.6 0.00 0.20 0.20 69 1012.2
20260510023957 17 263 0.0 1.6 0.00 0.20 0.20 69 1012.0
20260510023449 17 252 0.0 1.6 0.00 0.20 0.20 69 1012.0
20260510022946 18 253 0.0 1.6 0.00 0.20 0.20 68 1011.9
20260510022445 18 252 1.6 1.6 0.00 0.20 0.20 69 1011.6
20260510021944 18 256 0.0 0.0 0.00 0.20 0.20 68 1011.5
20260510021442 18 259 0.0 0.0 0.00 0.20 0.20 69 1011.7
20260510020938 18 259 0.0 0.0 0.00 0.20 0.20 67 1011.5
20260510020433 18 258 0.0 1.6 0.00 0.20 0.20 69 1011.5
20260510015929 18 252 1.6 1.6 0.00 0.20 0.20 68 1011.2
20260510015425 18 265 0.0 0.0 0.00 0.20 0.20 68 1011.4
20260510014920 18 265 0.0 1.6 0.00 0.20 0.20 69 1011.3
20260510014418 18 265 0.0 0.0 0.00 0.20 0.20 69 1011.2
20260510013914 19 271 0.0 0.0 0.00 0.20 0.20 68 1011.1
20260510013409 19 271 0.0 1.6 0.00 0.20 0.20 68 1011.0
20260510012905 19 261 0.0 1.6 0.00 0.20 0.20 67 1011.0
20260510012400 20 266 0.0 1.6 0.00 0.20 0.20 67 1010.9
20260510011854 20 272 0.0 1.6 0.00 0.20 0.20 66 1011.1
20260510011350 20 275 0.0 0.0 0.00 0.20 0.20 66 1011.0
20260510010846 20 249 1.6 1.6 0.00 0.20 0.20 65 1010.8
20260510010344 20 271 0.0 1.6 0.00 0.20 0.20 63 1010.8
20260510005840 21 273 0.0 0.0 0.00 0.20 0.20 62 1010.8
20260510005337 21 270 1.6 1.6 0.00 0.20 0.20 60 1010.6
20260510004835 21 291 0.0 0.0 0.00 0.20 0.20 60 1010.4
20260510004332 22 291 0.0 1.6 0.00 0.20 0.20 59 1010.3
20260510003829 22 282 0.0 0.0 0.00 0.20 0.20 58 1010.2
20260510003326 22 283 0.0 1.6 0.00 0.20 0.20 56 1010.1
20260510002825 22 282 0.0 0.0 0.00 0.20 0.20 56 1010.1
20260510002322 23 285 0.0 1.6 0.00 0.20 0.20 53 1010.1
20260510001819 23 261 1.6 3.2 0.00 0.20 0.20 53 1010.1
20260510001317 23 270 1.6 3.2 0.00 0.20 0.20 52 1010.0
20260510000813 23 279 0.0 1.6 0.00 0.20 0.20 52 1010.0
20260510000311 24 276 0.0 1.6 0.00 0.20 0.20 52 1010.1
20260509235808 24 259 1.6 3.2 0.00 0.20 0.20 51 1010.1
20260509235306 24 274 1.6 1.6 0.00 0.20 0.20 50 1010.2
20260509234800 25 265 0.0 1.6 0.00 0.20 0.20 50 1010.1
20260509234256 25 319 0.0 3.2 0.00 0.20 0.20 49 1010.2
20260509233755 25 304 0.0 1.6 0.00 0.20 0.20 49 1010.1
20260509233252 25 242 1.6 1.6 0.00 0.20 0.20 46 1010.2
20260509232748 25 241 1.6 3.2 0.00 0.20 0.20 44 1010.2
20260509232246 25 240 1.6 4.8 0.00 0.20 0.20 45 1010.0
20260509231742 26 311 0.0 1.6 0.00 0.20 0.20 45 1010.0
20260509231239 26 339 1.6 1.6 0.00 0.20 0.20 42 1010.1
20260509230736 26 313 1.6 3.2 0.00 0.20 0.20 41 1010.0
20260509230233 26 229 3.2 4.8 0.00 0.20 0.20 38 1010.1
20260509225728 26 301 0.0 0.0 0.00 0.20 0.20 39 1009.9
20260509225224 26 301 0.0 1.6 0.00 0.20 0.20 35 1009.9
20260509224720 26 275 0.0 1.6 0.00 0.20 0.20 42 1009.7
20260509224217 26 316 3.2 4.8 0.00 0.20 0.20 40 1009.9
20260509223714 26 337 1.6 4.8 0.00 0.20 0.20 36 1009.9
20260509223211 26 310 0.0 1.6 0.00 0.20 0.20 42 1009.9
20260509222708 27 322 3.2 8.0 0.00 0.20 0.20 41 1009.7
20260509222203 26 317 1.6 3.2 0.00 0.20 0.20 37 1009.8
20260509221659 26 351 1.6 4.8 0.00 0.20 0.20 39 1009.7
20260509221155 26 327 1.6 3.2 0.00 0.20 0.20 41 1009.8
20260509220651 26 294 4.8 8.0 0.00 0.20 0.20 40 1009.7
20260509220147 26 338 1.6 4.8 0.00 0.20 0.20 37 1009.9
20260509215643 26 274 0.0 3.2 0.00 0.20 0.20 41 1009.8
20260509215141 27 316 0.0 1.6 0.00 0.20 0.20 38 1009.9
20260509214637 27 284 1.6 3.2 0.00 0.20 0.20 39 1009.9
20260509214134 27 294 0.0 4.8 0.00 0.20 0.20 36 1009.8
20260509213631 26 333 1.6 8.0 0.00 0.20 0.20 40 1009.8
20260509213121 26 311 4.8 4.8 0.00 0.20 0.20 38 1009.8
20260509212620 26 333 6.4 11.3 0.00 0.20 0.20 35 1010.0
20260509212116 26 314 1.6 3.2 0.00 0.20 0.20 34 1010.0
20260509211612 26 322 1.6 4.8 0.00 0.20 0.20 39 1010.0
20260509211109 27 297 8.0 9.7 0.00 0.20 0.20 35 1009.9
20260509210605 27 252 1.6 3.2 0.00 0.20 0.20 35 1010.0
20260509205601 27 315 3.2 4.8 0.00 0.20 0.20 35 1010.1
20260509205051 27 333 3.2 8.0 0.00 0.20 0.20 34 1010.1
20260509204548 27 318 3.2 4.8 0.00 0.20 0.20 36 1010.1
20260509204044 27 312 0.0 1.6 0.00 0.20 0.20 36 1010.1